Wind_Speed
6 5 12 18 17 11 8 14 12 6 11 8 15 19 13 18 11 11 13 15 17 20 23 26 27 30 31 34 38 43 43 43 43 40 37 31 27 23 20 18 17 16 14 13
5 17 10 12 7 11 15 17 17 13 12 14 12 20 10 10 11 10 19 17 20 19 14 19 28 32 35 36 37 39 43 46 43 42 35 30 30 23 21 18 17 16 15 14
14 6 11 12 14 11 17 17 13 17 11 17 10 29 16 8 16 11 7 17 21 24 21 20 22 36 36 39 41 43 43 48 42 40 36 29 26 23 20 19 19 17 15 14
16 14 18 16 10 11 24 11 15 13 9 12 7 19 26 6 14 10 10 12 17 19 18 18 19 23 36 39 39 43 48 42 38 42 39 40 30 24 22 26 21 19 16 15
11 7 13 20 28 18 20 7 8 6 11 14 18 8 29 8 10 8 11 11 16 17 19 20 23 35 39 37 39 38 39 42 48 50 46 41 30 25 29 26 23 20 18 15
17 3 6 15 12 19 8 4 7 8 4 10 15 11 24 5 11 8 7 9 14 16 20 23 24 26 28 32 36 37 36 34 35 33 40 41 38 32 32 28 25 22 20 17
6 25 23 15 11 13 5 5 2 4 6 11 11 10 23 3 1 3 9 9 10 9 16 18 20 21 31 36 37 38 38 33 36 31 39 35 37 35 37 34 30 27 22 20
6 6 12 15 27 16 20 14 8 10 7 6 8 9 9 5 7 8 7 6 7 8 9 14 18 19 27 34 35 36 37 34 40 43 40 40 39 37 36 35 32 29 25 22
5 6 4 6 8 17 5 13 28 8 1 1 5 4 2 6 13 14 13 9 10 11 5 10 12 15 24 31 35 36 35 31 35 40 44 43 41 42 40 36 31 27 24 21
3 7 5 2 3 8 10 4 3 4 8 11 6 4 5 5 7 10 14 12 7 7 7 6 7 11 21 26 31 32 35 41 49 40 39 39 41 40 37 36 34 30 26 24
4 4 4 1 6 8 2 5 3 2 3 5 2 4 4 1 4 9 13 12 12 5 5 2 5 14 20 23 26 30 34 38 34 33 39 44 42 41 39 37 36 32 28 26
3 3 4 15 5 7 4 5 3 5 6 3 2 4 4 2 5 9 8 9 11 11 4 3 4 4 11 18 25 30 29 33 39 44 44 41 42 40 39 38 36 33 29 25
6 4 7 4 5 4 3 3 4 4 2 4 1 3 3 5 10 11 14 12 9 5 1 4 7 7 9 9 13 17 27 35 35 36 39 38 40 40 39 38 37 33 30 26
6 2 6 11 2 2 2 6 11 5 3 4 4 1 8 8 6 8 9 11 10 10 8 11 10 11 15 20 26 26 22 20 29 38 40 39 40 40 39 39 36 33 29 27
8 6 4 5 4 4 4 8 14 7 5 4 2 8 4 12 7 9 10 11 12 13 13 10 9 11 16 22 27 30 27 27 32 33 34 38 41 41 40 38 36 33 29 25
7 4 6 4 10 11 7 10 8 9 9 10 10 19 11 13 5 8 7 7 11 11 12 11 10 12 15 24 30 30 31 33 34 32 32 37 41 40 40 40 37 32 30 26
8 5 6 4 6 9 5 15 13 5 8 12 11 15 11 4 6 6 4 2 4 6 6 7 7 11 14 26 32 36 40 39 37 35 33 34 39 39 40 39 38 36 31 28
1 6 4 3 5 4 5 1 8 11 9 11 10 10 6 5 1 5 3 1 5 7 8 9 7 6 17 19 24 26 33 38 36 32 32 34 36 33 34 38 36 35 34 33
12 4 3 4 7 1 4 4 6 7 6 7 8 6 3 1 1 5 4 3 5 7 9 9 15 16 15 22 25 27 30 32 34 33 35 37 38 37 37 35 37 36 34 32
12 9 5 5 6 6 2 2 3 5 4 4 3 4 4 2 2 4 6 6 7 8 10 10 17 16 16 21 28 30 30 33 34 38 36 37 39 39 34 35 36 34 28 30
5 5 10 2 2 2 3 3 1 4 5 4 3 4 5 5 5 5 5 6 7 8 10 12 7 6 10 17 24 25 27 29 29 30 35 38 38 40 36 33 34 31 25 24
2 4 2 3 3 4 3 3 5 1 2 3 4 5 5 4 4 4 6 7 10 9 11 7 2 3 8 14 18 17 18 22 26 30 32 34 38 33 36 35 31 32 29 26
2 2 1 3 2 1 3 4 5 4 2 4 4 5 6 4 4 5 5 7 7 9 6 4 4 6 8 13 17 14 17 28 30 31 33 32 33 33 34 31 31 28 28 26
1 1 2 3 3 2 2 4 3 4 4 5 6 3 5 4 4 5 6 6 6 5 3 3 7 6 8 12 15 18 27 30 28 26 28 29 30 30 29 28 30 29 28 25
3 4 2 3 5 3 5 1 5 7 5 6 4 5 4 3 6 5 5 6 6 6 6 4 6 9 13 13 13 14 22 29 26 24 24 26 25 28 27 27 30 31 31 34
3 5 3 4 3 1 5 3 3 4 3 7 4 7 6 5 8 5 4 3 4 6 2 5 9 11 13 17 16 19 22 28 26 23 23 24 25 25 25 25 22 26 36 36
Wind_Direction
201 185 212 212 220 235 259 257 255 279 286 307 276 276 265 275 202 223 220 209 210 207 209 191 189 184 181 182 180 182 177 176 173 171 165 163 163 163 161 163 159 159 162 159
246 235 221 226 216 217 234 250 262 273 266 275 278 275 244 248 257 204 216 215 213 218 191 184 179 180 184 180 179 176 177 175 174 174 171 169 168 167 165 165 161 165 166 164
228 212 190 217 226 227 239 239 252 260 283 275 305 286 275 243 242 245 220 214 212 205 195 184 179 186 180 181 179 176 177 177 175 172 170 168 164 158 160 168 165 164 166 167
255 230 250 260 240 223 255 229 246 263 266 268 170 284 272 246 232 221 223 210 216 209 193 187 184 183 186 185 178 176 175 174 172 175 174 173 166 164 180 172 166 163 168 167
224 152 202 224 236 231 253 202 241 249 267 287 258 254 276 192 237 234 238 223 219 202 189 186 187 190 188 177 177 174 175 175 176 181 184 176 173 176 173 169 165 164 164 165
248 237 224 231 228 229 232 198 244 250 219 244 237 213 273 193 229 228 230 242 226 203 197 191 186 173 177 175 175 173 175 174 175 175 179 178 178 173 169 170 169 168 166 162
239 246 243 238 263 262 188 130 236 247 195 245 161 196 237 325 356 195 265 249 247 217 188 180 170 174 173 175 177 171 169 171 173 178 183 187 188 181 177 175 175 170 169 166
196 290 198 207 213 204 219 189 204 225 212 239 172 230 246 27 39 31 17 345 343 269 197 186 180 176 173 172 171 168 166 168 175 181 185 193 191 188 186 183 179 180 176 170
199 254 210 173 195 189 203 206 229 268 230 19 238 284 334 38 40 27 22 27 7 359 72 140 157 170 170 169 169 163 166 168 178 185 189 194 194 190 187 187 183 181 175 168
249 292 201 233 230 211 205 149 122 197 212 232 232 231 219 6 23 13 30 20 34 43 52 87 133 150 166 168 166 169 174 174 183 190 188 192 191 191 191 184 181 179 173 174
126 176 249 349 210 177 110 179 104 118 207 206 201 237 132 93 3 37 17 21 14 16 351 143 151 158 167 171 172 169 167 177 181 178 185 190 191 190 186 184 181 177 176 178
215 122 278 253 95 66 79 130 166 233 186 229 186 216 148 131 44 39 31 3 338 353 88 56 69 110 159 172 169 177 186 174 176 185 189 187 187 184 182 183 177 179 177 178
149 203 250 232 291 350 125 178 136 142 279 170 321 331 257 7 7 5 335 313 295 270 80 159 177 162 163 193 198 185 178 176 180 178 177 175 178 178 179 177 174 177 177 175
120 204 220 233 330 21 213 179 179 153 159 156 201 232 216 219 243 262 230 236 243 251 202 203 186 178 174 177 186 191 196 191 171 176 176 173 175 176 174 172 172 176 175 173
162 199 197 163 188 244 244 215 192 190 158 163 143 276 258 278 246 234 241 246 245 239 236 205 197 197 178 188 190 188 188 185 179 172 173 171 176 175 172 169 171 174 177 171
192 204 180 236 205 196 218 231 227 232 222 241 254 270 270 266 277 277 270 261 252 247 241 238 212 201 198 193 194 191 185 183 180 174 174 172 172 172 170 169 170 172 176 168
174 166 150 241 182 166 233 237 212 190 192 199 214 239 255 257 207 236 230 307 319 312 299 286 272 231 213 204 191 187 187 180 181 175 172 169 167 164 166 168 167 173 171 169
237 188 165 157 123 214 229 96 203 204 222 221 231 247 251 284 153 196 179 347 326 307 306 302 291 269 238 217 198 192 182 179 178 174 167 166 162 159 158 162 165 174 174 176
199 186 182 167 198 327 273 208 181 181 239 185 208 224 216 234 285 214 168 207 255 274 279 271 275 287 265 195 184 180 180 180 173 171 170 165 162 160 162 161 170 174 173 174
203 215 202 170 195 201 196 316 78 83 297 205 161 221 253 47 267 285 310 332 309 283 271 276 288 292 216 189 174 175 179 179 179 173 169 165 162 164 166 166 169 171 172 171
197 204 223 200 142 325 245 250 65 134 237 141 174 225 228 214 209 228 287 284 261 256 273 285 288 229 203 176 173 179 179 186 180 172 162 159 161 168 171 165 168 164 164 163
287 185 180 199 152 197 218 233 165 63 60 141 182 214 209 221 257 279 291 305 317 311 315 294 164 142 167 170 182 185 185 174 164 159 156 155 161 165 167 171 161 165 161 165
279 12 354 342 32 41 323 310 349 11 293 222 213 200 186 209 253 287 292 302 304 326 326 129 123 138 164 166 176 163 152 147 145 146 153 159 158 164 170 163 158 157 160 164
13 39 339 345 177 281 338 297 303 292 257 308 290 226 167 224 252 286 302 320 326 324 332 172 151 146 118 113 134 140 153 156 154 149 150 153 156 160 167 162 161 160 164 166
222 356 350 283 268 203 193 202 340 326 257 261 281 273 239 242 277 246 277 302 324 324 317 191 148 153 146 155 162 154 151 154 151 149 150 155 160 162 163 165 167 169 175 180
200 222 192 224 264 124 298 339 8 296 355 322 334 305 279 221 245 201 235 312 324 325 167 148 163 162 166 166 175 174 163 161 153 150 155 160 160 160 161 159 162 182 192 194
Height
723 737 737 731 730 730 736 738 744 737 721 724 719 711 705 690 699 698 698 699 700 699 689 706 715 722 728 733 738 743 747 755 759 765 771 777 781 786 789 790 791 793 796 798
728 723 720 721 724 730 731 734 732 723 719 719 716 699 700 693 684 688 685 689 690 691 696 697 705 713 718 724 732 739 746 751 757 761 767 773 779 785 789 791 791 793 795 798
724 706 702 717 722 726 722 727 728 726 719 709 717 688 687 682 674 671 675 672 673 674 683 690 696 699 709 715 721 729 740 745 752 758 764 772 780 786 788 789 790 793 796 798
714 704 710 711 717 719 717 714 715 720 727 730 710 705 667 678 672 669 668 670 668 668 674 684 691 701 701 707 717 722 729 741 749 753 759 762 767 775 782 786 788 791 795 799
691 702 707 708 700 707 701 705 712 716 722 723 709 719 641 663 669 668 662 662 658 659 663 673 679 680 691 704 712 722 732 733 733 740 749 758 767 771 777 786 790 791 794 797
690 688 693 691 692 694 697 704 707 710 720 729 693 706 668 675 662 659 654 653 648 651 653 656 666 684 697 705 711 718 727 735 740 748 751 752 759 767 776 783 789 793 794 795
693 688 683 685 698 696 702 712 729 730 723 714 687 702 660 654 653 655 655 653 649 647 650 659 668 675 684 695 704 710 718 730 737 749 750 759 763 766 770 778 785 789 793 794
695 692 677 669 674 681 684 695 709 706 710 703 691 692 671 664 663 662 664 663 658 652 652 659 664 670 679 687 699 709 716 723 729 736 745 754 755 764 769 773 779 785 789 792
692 682 662 661 659 672 678 687 664 692 694 718 699 674 667 667 671 669 667 665 668 665 655 658 667 674 680 684 693 703 714 724 731 735 739 747 753 754 760 769 777 786 789 793
678 689 665 662 660 662 662 663 689 694 694 689 689 684 681 690 683 682 676 674 674 673 674 676 676 680 687 692 695 702 709 710 717 730 735 747 750 754 761 766 771 781 786 791
675 685 671 667 663 668 671 670 682 683 691 685 684 688 686 690 689 687 688 684 684 678 682 682 684 685 691 693 697 700 705 710 715 725 731 738 746 750 755 763 769 774 782 789
679 689 687 672 669 668 665 673 680 680 680 682 678 680 676 684 688 685 684 687 688 682 682 688 690 695 698 698 697 701 704 701 708 717 726 734 740 748 751 760 764 776 782 787
680 685 681 679 685 677 676 682 689 700 700 682 680 683 682 684 684 685 687 684 683 678 684 684 688 689 697 704 704 704 703 703 710 715 723 731 737 744 751 757 763 773 780 785
682 692 680 663 681 690 685 683 688 683 695 690 685 689 688 683 685 683 682 681 680 677 676 679 679 681 690 695 701 705 709 713 708 715 721 728 734 741 748 756 764 774 778 782
682 687 690 685 696 696 695 683 684 682 684 694 690 682 673 670 675 676 672 671 673 674 671 671 673 674 670 684 690 694 701 707 709 714 721 724 732 737 745 751 763 772 778 780
681 684 687 687 680 690 692 686 684 677 674 673 677 678 672 663 670 673 667 663 664 666 666 665 665 667 667 670 677 684 689 696 704 708 717 721 728 736 741 747 760 769 777 778
676 680 679 680 675 678 685 674 670 666 662 667 682 668 665 666 670 671 669 666 667 669 670 668 664 662 660 661 665 670 678 686 698 700 711 720 724 728 736 747 754 766 770 776
674 675 676 675 678 687 658 652 655 661 659 660 659 658 664 664 670 675 672 669 669 670 667 664 660 658 657 659 664 672 675 678 689 696 703 714 721 729 738 744 752 763 763 770
673 670 666 679 672 664 654 651 657 660 657 656 661 660 663 667 669 672 669 671 668 669 665 661 656 655 650 652 658 666 674 681 684 688 698 706 713 724 735 740 749 755 759 768
666 668 663 669 666 668 652 651 648 650 669 657 659 661 664 668 679 677 670 665 663 663 660 656 651 650 648 650 654 662 669 673 676 681 690 700 707 721 732 736 743 750 761 766
665 661 657 657 663 662 658 655 650 664 670 661 665 669 672 675 674 672 665 665 664 661 655 648 646 646 649 651 655 659 663 667 675 684 688 696 707 719 726 733 741 748 762 769
657 656 656 658 660 666 658 658 656 660 660 660 664 667 668 668 665 665 665 662 656 652 646 644 646 648 651 653 657 661 665 671 677 683 690 697 706 717 723 736 739 747 756 770
662 671 669 665 665 665 660 660 656 660 660 662 663 662 663 664 665 665 662 659 655 651 648 647 650 652 654 654 656 661 665 670 677 684 688 697 705 712 725 732 738 747 755 765
667 668 672 668 667 663 663 665 664 662 661 660 661 658 658 660 661 661 661 657 655 652 651 651 652 654 657 658 661 664 668 673 678 685 690 697 705 715 725 730 735 742 751 761
680 675 673 670 666 663 665 664 660 654 656 657 657 659 656 659 659 661 661 659 656 655 653 653 655 656 658 661 665 669 672 676 681 686 693 700 708 715 722 727 731 736 745 755
676 674 683 681 665 662 660 660 661 659 653 652 658 658 654 658 658 659 662 659 658 656 654 655 657 657 659 662 665 668 672 676 681 687 694 700 707 713 719 726 735 742 745 753